Regional Weather Roundup
Issued by NWS State College, PA

Home | Current Version | Previous Version | Graphics & Text | Print | Product List | Glossary On
Versions: 1 2 3 4 5 6 7 8 9 10 11 12 13 14 15 16 17 18 19 20 21 22 23 24 25 26 27 28 29 30 31 32 33 34 35 36 37 38 39 40 41 42 43 44 45 46 47 48 49 50
000
ASUS41 KCTP 260910
RWRCTP

REGIONAL WEATHER ROUNDUP
NATIONAL WEATHER SERVICE STATE COLLEGE PA
500 AM EDT SUN MAR 26 2017

Note: "fair" indicates few or no clouds below 12,000 feet with no
significant weather and/or obstructions to visibility.

* = STATION THAT DOES NOT REPORT PRECIPITATION /E.G. RAIN...SNOW...ETC/
    THUNDER OR FOG.

PAZ002>004-007>009-013>016-020>023-029>032-261000-
WESTERN PENNSYLVANIA

CITY           SKY/WX    TMP DP  RH WIND       PRES   REMARKS
ERIE           MOCLDY    36  34  92 NE10      30.11F
MEADVILLE      MOCLDY    51  44  77 VRB6      30.09F
FRANKLIN*      CLOUDY    50  43  76 SE13      30.13F
NEW CASTLE     CLOUDY    57  49  74 E9        30.09F
BEAVER COUNTY  NOT AVBL
BUTLER*        CLOUDY    54  46  76 E10       30.12S
PITTSBURGH INT CLOUDY    58  51  78 E8        30.08F
PITTSBURGH     CLOUDY    58  48  69 SE7       30.09F
INDIANA*       CLOUDY    52  46  82 E8G15     30.18S
LATROBE        MOCLDY    57  48  72 E3G16     30.13S
WASHINGTON CO* CLOUDY    57  48  72 CALM      30.10F
$$

PAZ004>006-010>012-017>019-024>028-033>037-041-042-045-046-049>053-261000-
CENTRAL PENNSYLVANIA

CITY           SKY/WX    TMP DP  RH WIND       PRES   REMARKS
BRADFORD       CLOUDY    41  41 100 SE13G20   30.19S
DUBOIS         CLOUDY    45  41  86 E15       30.16S
CLEARFIELD       N/A    N/A N/A N/A MISG      30.23S
JOHNSTOWN      CLOUDY    48  46  93 E7        30.16S FOG
ALTOONA        CLOUDY    49  43  80 E7        30.23S
STATE COLLEGE  CLOUDY    44  40  86 E7        30.25S
WILLIAMSPORT   CLOUDY    44  36  73 E14       30.31F
SELINSGROVE    CLOUDY    44  39  82 E7        30.32S
FT INDIANTOWN  CLOUDY    43  43 100 E9        30.32S
CAPITAL CITY   CLOUDY    47  38  71 E13       30.32R
HARRISBURG     CLOUDY    45  40  82 E15       30.31S
YORK           CLOUDY    45  40  82 E12       30.30S
$$

PAZ038>040-043-044-047-048-054-055-060>062-067>071-261000-
EASTERN PENNSYLVANIA

CITY           SKY/WX    TMP DP  RH WIND       PRES   REMARKS
SCRANTON       CLOUDY    38  33  82 E5        30.34S
MOUNT POCONO   CLOUDY    30  30 100 E8        30.31R
ALLENTOWN      CLOUDY    40  34  79 NE12      30.36S
QUAKERTOWN*    CLOUDY    41  36  81 E7        30.35S
READING        CLOUDY    44  40  85 E9        30.33S
LANCASTER      CLOUDY    44  40  85 E14       30.32S
COATESVILLE    CLOUDY    43  39  87 E16G25    30.33R
POTTSTOWN      CLOUDY    42  37  82 E5        30.37R
BLUE BELL      CLOUDY    41  36  81 E9        30.35R
DOYLESTOWN     CLOUDY    41  35  79 NE8       30.35S
WILLOW GROVE   NOT AVBL
NORTH PHILA    CLOUDY    44  38  79 E10       30.38R
PHILADELPHIA   CLOUDY    44  38  79 E10G21    30.36S
$$




USA.gov is the U.S. government's official web portal to all federal, state and local government web resources and services.